EHI
0 0 0 0 0 0 0 0 0 0 0 0 0 0 0 0 0 0 0 0 0 0 0 0 0 0 0 0 0 0 0 0 0 0 0 0 0 0 0 0 0 0 0 0
0 0 0 0 0 0 0 0 0 0 0 0 0 0 0 0 0 0 0 0 0 0 0 0 0 0 0 0 0 0 0 0 0 0 0 0 0 0 0 0 0 0 0 0
0 0 0 0 0 0 0 0 0 0 0 0 0 0 0 0 0 0 0 0 0 0 0 0 0 0 0 0 0 0 0 0 0 0 0 0 0 0 0 0 0 0 0 0
0 0 0 0 0 0 0 0 0 0 0 0 0 0 0 0 0 0 0 0 0 0 0 0 0 0 0 0 0 0 0 0 0 0 0 0 0 0 0 0 0 0 0 0
0 0 0 0 0 0 0 0 0 0 0 0 0 0 0 0 0 0 0 0 0 0 0 0 0 0 0 0 0 0 0 0 0 0 0 0 0 0 0 0 0 0 0 0
0 0 0 0 0 0 0 0 0 0 0 0 0 0 0 0 0 0 0 0 0 0 0 0 0 0 0 0 0 0 0 0 0 0 0 0 0 0 0 0 0 0 0 0
0 0 0 0 0 0 0 0 0 0 0 0 0 0 0 0 0 0 0 0 0 0 0 0 0 0 0 0 0 0 0 0 0 0 0 0 0 0 0 0 0 0 0 0
0 0 0 0 0 0 0 0 0 0 0 0 0 0 0 0 0 0 0 0 0 0 0 0 0 0 0 0 0 0 0 0 0 0 0 0 0 0 0 0 0 0 0 0
0 0 0 0 0 0 0 0 0 0 0 0 0 0 0 0 0 0 0 0 0 0 0 0 0 0 0 0 0 0 0 0 0 0 0 0 0 0 0 0 0 0 0 0
0 0 0 0 0 0 0 0 0 0 0 0 0 0 0 0 0 0 0 0 0 0 0 0 0 0 0 0 0 0 0 0 0 0 0 0 0 0 0 0 0 0 0 0
0 0 0 0 0 0 0 0 0 0 0 0 0 0 0 0 0 0 0 0 0 0 0 0 0 0 0 0 0 0 0 0 0 0 0 0 0 0 0 0 0 0 0 0
0 0 0 0 0 0 0 0 0 0 0 0 0 0 0 0 0 0 0 0 0 0 0 0 0 0 0 0 0 0 0 0 0 0 0 0 0 0 0 0 0 0 0 0
0 0 0 0 0 0 0 0 0 0 0 0 0 0 0 0 0 0 0 0 0 0 0 0 0 0 0 0 0 0 0 0 0 0 0 0 0 0 0 0 0 0 0 0
0 0 0 0 0 0 0 0 0 0 0 0 0 0 0 0 0 0 0 0 0 0 0 0 0 0 0 0 0 0 0 0 0 0 0 0 0 0 0 0 0 0 0 0
0 0 0 0 0 0 0 0 0 0 0 0 0 0 0 0 0 0 0 0 0 0 0 0 0 0 0 0 0 0 0 0 0 0 0 0 0 0 0 0 0 0 0 0
0 0 0 0 0 0 0 0 0 0 0 0 0 0 0 0 0 0 0 0 0 0 0 0 0 0 0 0 0 0 0 0 0 0 0 0 0 0 0 0 0 0 0 0
0 0 0 0 0 0 0 0 0 0 0 0 0 0 0 0 0 0 0 0 0 0 0 0 0 0 0 0 0 0 0 0 0 0 0 0 0 0 0 0 0 0 0 0
0 0 0 0 0 0 0 0 0 0 0 0 0 0 0 0 0 0 0 0 0 0 0 0 0 0 0 0 0 0 0 0 0 0 0 0 0 0 0 0 0 0 0 0
0 0 0 0 0 0 0 0 0 0 0 0 0 0 0 0 0 0 0 0 0 0 0 0 0 0 0 0 0 0 0 0 0 0 0 0 0 0 0 0 0 0 0 0
0 0 0 0 0 0 0 0 0 0 0 0 0 0 0 0 0 0 0 0 0 0 0 0 0 0 0 0 0 0 0 0 0 0 0 0 0 0 0 0 0 0 0 0
0 0 0 0 0 0 0 0 0 0 0 0 0 0 0 0 0 0 0 0 0 0 0 0 0 0 0 0 0 0 0 0 0 0 0 0 0 0 0 0 0 0 0 0
0 0 0 0 0 0 0 0 0 0 0 0 0 0 0 0 0 0 0 0 0 0 0 0 0 0 0 0 0 0 0 0 0 0 0 0 0 0 0 0 0 0 0 0
0 0 0 0 0 0 0 0 0 0 0 0 0 0 0 0 0 0 0 0 0 0 0 0 0 0 0 0 0 0 0 0 0 0 0 0 0 0 0 0 0 0 0 0
0 0 0 0 0 0 0 0 0 0 0 0 0 0 0 0 0 0 0 0 0 0 0 0 0 0 0 0 0 0 0 0 0 0 0 0 0 0 0 0 0 0 0 0
0 0 0 0 0 0 0 0 0 0 0 0 0 0 0 0 0 0 0 0 0 0 0 0 0 0 0 0 0 0 0 0 0 0 0 0 0 0 0 0 0 0 0 0
0 0 0 0 0 0 0 0 0 0 0 0 0 0 0 0 0 0 0 0 0 0 0 0 0 0 0 0 0 0 0 0 0 0 0 0 0 0 0 0 0 0 0 0
Wind_Speed
2 3 2 4 4 4 4 4 5 4 7 5 9 10 9 13 12 11 10 11 12 12 11 12 11 11 10 9 7 5 4 2 1 0 2 2 2 3 3 2 2 3 4 4
4 2 4 2 1 3 4 5 4 5 6 5 6 10 8 10 16 13 12 11 11 11 11 12 12 11 11 10 8 6 5 3 1 1 1 2 3 3 3 2 2 3 4 5
3 4 2 2 3 5 6 2 3 4 3 7 4 6 4 1 6 11 11 10 9 11 12 12 13 12 10 9 9 7 5 3 2 1 1 3 3 3 2 3 2 3 5 5
3 3 1 4 4 2 3 5 2 4 5 2 4 3 6 6 5 8 10 10 11 9 9 11 14 13 12 9 9 8 6 4 3 2 2 2 3 3 3 2 3 4 4 5
2 4 3 4 1 1 2 2 3 5 4 4 5 4 4 5 7 11 12 12 11 10 9 10 13 13 11 10 9 8 6 5 4 3 2 3 3 3 3 3 4 4 4 5
3 1 2 2 2 1 4 4 5 3 3 5 5 3 4 6 6 6 9 10 10 10 9 8 10 11 10 10 9 7 6 6 5 4 4 4 3 4 5 5 4 4 3 4
6 4 3 0 3 4 4 4 3 3 3 4 3 3 8 6 6 5 7 9 8 9 9 9 11 12 12 11 9 8 7 7 6 5 4 3 4 4 5 4 4 5 4 4
5 5 7 4 2 3 2 3 3 3 3 1 3 6 7 6 7 5 3 4 6 7 8 10 11 12 12 12 10 9 8 7 6 5 4 3 4 3 3 4 4 4 4 4
5 2 2 2 2 2 3 2 1 3 5 4 6 6 4 5 5 6 7 7 8 8 9 10 11 11 12 12 11 10 9 7 6 5 4 4 3 3 4 4 4 4 4 5
4 3 5 4 2 3 3 5 2 3 3 5 7 7 6 8 9 10 10 10 10 10 10 10 11 11 11 11 10 9 8 7 6 5 5 4 4 5 4 4 5 5 5 5
3 4 3 4 7 7 5 4 4 4 3 3 5 8 4 10 9 8 9 9 10 11 11 11 11 11 10 10 9 8 8 7 6 6 5 4 4 4 4 5 5 5 5 6
1 3 5 4 2 3 2 5 6 4 5 5 4 12 7 7 6 6 6 5 6 9 10 10 11 11 10 11 10 9 8 8 7 6 5 4 4 5 5 5 5 5 6 6
0 2 4 2 1 1 3 4 5 4 3 4 5 12 3 3 4 5 7 7 6 8 9 10 10 11 12 11 10 10 9 8 7 6 5 5 5 5 4 4 5 5 6 6
2 3 6 6 1 2 5 7 7 6 5 7 12 16 11 7 8 8 8 9 9 9 10 11 11 11 11 11 11 10 9 8 8 7 6 5 5 4 3 4 5 6 6 6
2 4 6 9 9 6 9 10 10 14 14 11 12 14 18 8 6 5 3 5 7 8 10 12 12 12 12 12 11 10 9 9 8 7 6 6 4 2 3 5 6 6 6 8
4 4 4 7 8 7 9 13 15 17 17 21 20 23 19 9 7 6 3 4 7 9 11 12 13 13 14 14 12 11 10 9 8 7 7 5 4 4 4 5 6 7 7 7
5 4 3 6 2 3 11 15 17 11 12 11 19 19 9 7 7 5 5 6 9 10 11 13 15 15 14 14 13 12 10 9 9 8 7 6 5 5 5 6 7 7 7 7
6 4 3 4 3 11 12 3 6 12 15 14 14 13 9 8 5 5 7 9 10 10 10 13 13 13 12 12 12 11 10 10 9 8 7 7 6 6 5 6 7 7 7 7
2 4 4 3 5 11 12 8 4 6 10 11 17 19 16 8 6 9 11 11 11 10 10 11 12 12 12 13 13 12 11 11 10 9 8 8 7 6 6 7 7 7 7 6
3 3 3 4 6 10 11 1 2 1 10 11 12 14 12 2 2 8 5 5 7 6 6 8 10 12 13 14 14 14 13 12 12 11 9 8 8 7 7 7 7 6 6 6
5 5 6 7 9 13 9 5 5 4 10 4 9 11 9 9 12 8 4 5 6 6 7 9 11 12 13 14 15 15 14 14 12 10 9 8 8 8 7 6 5 5 6 6
14 11 10 8 9 16 7 9 12 13 4 4 6 7 8 10 11 9 7 8 8 8 8 10 11 11 12 15 16 15 15 12 11 10 9 8 7 7 6 5 5 5 5 5
13 14 10 15 15 7 11 13 10 4 6 6 6 7 7 9 11 11 9 9 10 10 10 10 10 11 12 15 16 17 14 12 12 11 10 8 7 7 6 5 5 4 4 3
7 6 6 8 11 9 8 10 11 12 14 14 12 11 10 12 13 13 11 9 10 11 11 10 11 13 15 16 16 14 13 14 13 12 10 8 8 7 6 5 4 4 3 3
8 4 5 10 8 7 11 13 16 17 17 16 15 14 13 13 14 14 12 11 10 10 10 11 14 16 16 16 16 13 14 15 14 12 10 9 8 6 5 5 4 4 4 4
10 10 12 16 10 9 11 8 9 12 15 15 15 15 12 11 14 14 12 10 8 10 10 13 16 16 16 16 16 15 16 16 15 13 11 8 7 6 5 4 3 6 6 8
Wind_Direction
213 242 66 48 28 344 345 320 304 95 146 206 246 260 246 179 193 211 215 211 214 211 197 184 173 159 152 153 162 169 166 153 131 66 332 316 318 306 301 293 322 344 330 320
241 132 65 42 5 301 281 288 323 100 161 211 276 275 260 186 195 205 214 219 214 209 194 180 170 164 165 168 167 167 164 150 160 132 277 261 273 274 271 283 341 328 313 302
11 81 83 257 237 272 265 297 4 341 283 216 267 275 176 164 191 197 212 225 227 209 196 181 173 171 170 172 164 161 144 175 189 150 261 288 290 291 315 343 325 301 298 297
96 120 229 257 249 302 327 58 360 301 297 244 186 285 205 180 208 215 216 220 228 225 199 181 174 174 173 164 141 141 155 192 187 184 245 288 290 296 302 297 283 294 300 303
143 153 221 259 22 13 360 49 286 280 270 277 202 243 211 174 211 215 213 215 218 215 201 184 172 171 164 146 141 148 165 195 186 193 234 257 273 284 292 296 296 301 302 299
86 62 299 356 55 316 318 270 238 265 265 256 180 211 242 197 200 184 187 194 199 197 189 173 156 153 143 137 140 151 180 196 185 202 227 242 269 287 298 303 304 302 295 294
186 191 157 264 248 200 231 274 243 228 222 222 134 216 248 179 157 175 185 185 183 177 171 163 155 156 150 149 153 164 190 201 189 199 221 239 258 270 278 291 294 298 295 296
225 191 165 187 266 322 257 282 309 286 285 336 195 231 249 155 150 153 161 170 171 176 173 170 166 162 158 160 163 173 193 197 184 196 219 234 253 258 263 276 283 286 284 284
318 96 84 78 25 312 281 230 21 308 293 278 255 236 205 142 170 193 204 207 209 199 181 172 166 164 165 167 169 178 187 189 185 195 214 231 249 266 267 276 278 274 275 290
311 298 158 142 209 226 267 318 271 238 263 276 279 256 227 191 220 216 214 216 214 196 181 174 172 172 169 166 168 174 181 186 181 191 214 224 234 250 261 272 274 276 282 290
287 284 171 178 207 199 183 223 235 262 273 242 276 268 228 177 187 196 206 210 205 192 182 178 175 171 163 158 162 171 181 182 184 196 207 227 246 256 263 266 270 279 286 290
221 296 264 200 101 17 210 220 201 215 235 213 250 270 253 193 185 188 209 208 187 178 173 171 168 165 164 165 169 179 183 182 187 189 195 223 245 255 260 267 278 286 289 289
104 245 276 233 340 0 282 253 248 269 307 236 228 260 249 195 207 213 219 218 193 167 164 167 169 173 174 173 177 183 183 180 178 179 196 224 242 252 264 281 291 293 291 291
4 248 235 257 320 186 229 229 215 211 222 236 232 252 263 242 243 241 223 210 196 177 174 177 181 181 178 178 181 182 180 174 174 180 196 221 238 253 278 296 295 290 288 290
204 251 256 267 281 254 238 239 209 213 223 233 246 251 261 254 259 272 241 185 182 179 184 188 188 184 180 180 181 180 177 171 173 180 197 216 231 268 289 287 284 282 282 288
213 249 272 272 257 252 261 250 235 228 233 244 258 270 270 283 281 275 260 206 207 206 199 195 191 187 186 183 181 178 175 170 168 181 195 203 218 242 259 269 273 276 278 281
193 217 247 265 230 344 266 240 223 218 217 212 237 248 279 279 268 259 254 238 228 220 205 197 195 194 188 183 178 178 173 163 168 181 190 197 210 235 253 269 277 279 281 280
193 203 234 268 291 249 246 249 226 222 238 225 242 264 280 275 299 287 256 243 241 226 208 198 193 190 180 172 169 167 164 166 173 182 191 197 206 227 246 261 270 274 273 273
285 211 234 233 251 269 278 260 210 222 270 231 232 252 262 276 320 286 253 228 226 222 205 193 185 177 171 169 167 164 168 170 177 189 194 195 200 217 236 251 260 265 270 276
296 295 235 206 222 248 255 169 81 121 278 251 210 231 248 201 275 267 244 209 217 211 187 173 167 167 171 170 164 169 175 179 189 192 191 190 195 209 227 242 254 264 274 278
172 205 213 220 232 255 261 139 123 190 249 242 197 214 217 196 220 239 204 211 211 204 184 167 167 175 177 168 167 178 182 191 190 179 179 187 197 210 225 241 256 273 280 288
179 182 199 193 215 249 209 155 193 221 259 262 241 227 224 230 249 254 233 223 212 204 188 176 177 180 173 171 175 184 191 186 170 170 177 187 198 213 223 233 254 263 277 294
196 195 193 199 218 241 174 205 228 270 275 265 261 260 252 255 260 262 253 234 218 207 197 186 182 180 179 180 183 190 187 169 166 169 178 187 199 210 214 223 242 258 271 280
226 209 229 242 247 252 236 237 253 258 258 260 257 258 256 255 261 265 260 245 224 210 199 188 184 190 192 188 190 191 174 167 167 174 180 187 197 206 212 219 222 229 246 264
252 207 241 257 264 280 262 242 246 255 260 264 263 257 252 254 260 260 260 250 230 213 198 191 198 201 198 189 190 185 172 168 171 176 181 187 193 196 207 216 214 219 217 226
240 236 243 259 258 253 263 256 251 256 261 263 267 272 265 248 255 261 259 253 231 212 198 200 206 206 198 190 189 185 175 172 173 178 183 185 187 193 199 206 233 258 247 256